Find Starlink 34654

NORAD ID: 64858 Int'l Des: 2025-152 Owner: SPXS Country: US Constellation: starlink operational
LEOCIRCULARRETROGRADESSO

Current View

Loading 3D Globe...

About Starlink 34654

Description loading...

Upcoming Passes

Passes for default location (London). Set your location on the main map for personalized predictions.

Altitude History

Loading altitude history...

Two-Line Element Set

1 64858U 25152S 26151.50800909 .00009098 00000-0 63375-3 0 9995
2 64858 97.4225 6.6794 0002670 89.4999 270.6535 15.05651578 47885
Epoch: May 31, 2026 • Age: 10 hours

Current Status

Altitude 560.8 km
Velocity 7.59 km/s
Sub-Earth Point 77.83°N, 108.97°E
Launch Date Jul 19, 2025
Age 0.8 years
Type internet

Technical Details

Classification Payload
Mass 575.00 kg
Dry Mass 530.00 kg
Total Mass 575.00 kg
Length 0.30 m
Diameter 4.10 m
Span 29.00 m
Shape Box + pan
Manufacturer SPXS
Bus Type Starlink V2MO
Phase Status In Orbit
Owner/State SPXS/US

Most Searched